Find Starlink 33894

NORAD ID: 63697 Int'l Des: 2025-087 Owner: SPXS Country: US Constellation: starlink operational
LEOCIRCULAR

Current View

Loading 3D Globe...

About Starlink 33894

Starlink 33894 (NORAD 63697) is a starlink constellation satellite (v2 mini) launched Apr 28, 2025 by SPXS of US. It operates in LEO, CIRCULAR orbit with a mass of 575.00 kg.

About Starlink 33894

Description loading...

Upcoming Passes

Passes for default location (London). Set your location on the main map for personalized predictions.

Altitude History

Loading altitude history...

Two-Line Element Set

1 63697U 25087A 26169.52512101 .00014161 00000-0 42949-3 0 9998
2 63697 53.1585 109.3706 0001469 81.6878 278.4291 15.34397063 64660
Epoch: Jun 18, 2026 • Age: 7 hours

Current Status

Altitude 467.8 km
Velocity 7.64 km/s
Sub-Earth Point 51.41°N, 17.81°W
Launch Date Apr 28, 2025
Age 1.1 years
Type internet

Technical Details

Classification Payload
Mass 575.00 kg
Dry Mass 530.00 kg
Total Mass 575.00 kg
Length 0.30 m
Diameter 4.10 m
Span 29.00 m
Shape Box + pan
Manufacturer SPXS
Bus Type Starlink V2MO
Phase Status In Orbit
Owner/State SPXS/US

Most Searched